Olean, NY

1:21 PM EST on December 06, 2019 (GMT -0500)
Cattaraugus County-Olean

Weather History for KOLE - November, 2019

Change the Weather History Date:

Saturday, November 16, 2019

  Actual Average (WUND) Record (WUND)
Temperature  
Mean Temperature 22 °F -  
Max Temperature 28 °F - - (-1)
Min Temperature 15 °F - - (-1)
Degree Days  
Heating Degree Days 44    
Moisture  
Dew Point 10 °F    
Average Humidity 63    
Maximum Humidity 100    
Minimum Humidity 29    
Precipitation  
Precipitation 0.00 in - - ()
Sea Level Pressure  
Sea Level Pressure 30.35 in    
Wind  
Wind Speed 9 mph ()    
Max Wind Speed 16 mph    
Max Gust Speed 20 mph    
Visibility 10.0 miles    
Events      
Averages and records for this station are not official NWS values.
T = Trace of Precipitation, MM = Missing Value Source: Averaged Metar Reports

Daily Weather History Graph

Daily Weather History Graph

Search for Another Location

Airport or City:

Astronomy

Nov. 16, 2019 Rise Set
Actual Time 7:04 AM EST 4:51 PM EST
Civil Twilight 6:34 AM EST 5:21 PM EST
Nautical Twilight 6:00 AM EST 5:55 PM EST
Astronomical Twilight 5:27 AM EST 6:28 PM EST
Moon 8:19 PM EST (11/16) 10:59 AM EST (11/16)
Length of Visible Light 10h 46m
Length of Day
9h 46m
Waning Gibbous, 82% of the Moon is Illuminated
Nov 16
Waning Gibbous
Nov 19
Last Quarter
Nov 26
New
Dec 4
First Quarter
Dec 12
Full

Hourly Weather History & Observations

Time (EST) Temp. Windchill Dew Point Humidity Pressure Visibility Wind Dir Wind Speed Gust Speed Precip Events Conditions
12:15 AM 26.6 °F 16.8 °F 26.6 °F 100% 30.29 in 10.0 mi North 10.4 mph - N/A   Overcast
12:35 AM 26.6 °F 17.5 °F 24.8 °F 93% 30.30 in 10.0 mi NNE 9.2 mph - N/A   Overcast
12:55 AM 26.6 °F 17.5 °F 23.0 °F 86% 30.30 in 10.0 mi North 9.2 mph - N/A   Overcast
1:15 AM 24.8 °F 14.0 °F 21.2 °F 86% 30.30 in 10.0 mi NNE 11.5 mph - N/A   Overcast
1:35 AM 24.8 °F 14.0 °F 23.0 °F 93% 30.30 in 10.0 mi North 11.5 mph 16.1 mph N/A   Overcast
1:55 AM 23.0 °F 13.9 °F 21.2 °F 93% 30.31 in 10.0 mi NNE 8.1 mph - N/A   Overcast
2:15 AM 23.0 °F 12.4 °F 19.4 °F 86% 30.30 in 10.0 mi NNE 10.4 mph - N/A   Overcast
2:35 AM 23.0 °F 17.0 °F 19.4 °F 86% 30.31 in 10.0 mi NNE 4.6 mph - N/A   Overcast
2:55 AM 21.2 °F 11.7 °F 17.6 °F 86% 30.32 in 10.0 mi NE 8.1 mph - N/A   Mostly Cloudy
3:15 AM 19.4 °F 8.6 °F 12.2 °F 74% 30.32 in 10.0 mi NNE 9.2 mph 17.3 mph N/A   Scattered Clouds
3:35 AM 19.4 °F 8.6 °F 12.2 °F 74% 30.32 in 10.0 mi NE 9.2 mph 16.1 mph N/A   Clear
3:55 AM 17.6 °F 7.3 °F 10.4 °F 73% 30.32 in 10.0 mi NE 8.1 mph - N/A   Clear
4:15 AM 17.6 °F 6.4 °F 10.4 °F 73% 30.32 in 10.0 mi ENE 9.2 mph - N/A   Clear
4:35 AM 17.6 °F 5.0 °F 10.4 °F 73% 30.33 in 10.0 mi ENE 11.5 mph - N/A   Clear
4:55 AM 17.6 °F 5.0 °F 10.4 °F 73% 30.33 in 10.0 mi ENE 11.5 mph - N/A   Clear
5:15 AM 17.6 °F 5.0 °F 12.2 °F 79% 30.34 in 10.0 mi ENE 11.5 mph 16.1 mph N/A   Clear
5:35 AM 17.6 °F 4.3 °F 12.2 °F 79% 30.34 in 10.0 mi ENE 12.7 mph - N/A   Clear
5:55 AM 17.6 °F 5.0 °F 12.2 °F 79% 30.35 in 10.0 mi ENE 11.5 mph - N/A   Clear
6:15 AM 15.8 °F 4.2 °F 12.2 °F 86% 30.35 in 10.0 mi ENE 9.2 mph - N/A   Clear
6:35 AM 15.8 °F 0.3 °F 12.2 °F 86% 30.35 in 10.0 mi NE 16.1 mph 19.6 mph N/A   Clear
6:55 AM 15.8 °F 1.4 °F 12.2 °F 86% 30.36 in 10.0 mi ENE 13.8 mph 18.4 mph N/A   Clear
7:15 AM 15.8 °F 3.4 °F 14.0 °F 93% 30.37 in 10.0 mi ENE 10.4 mph 19.6 mph N/A   Clear
7:35 AM 15.8 °F 6.1 °F 14.0 °F 93% 30.38 in 10.0 mi ENE 6.9 mph - N/A   Clear
7:55 AM 15.8 °F 5.1 °F 14.0 °F 93% 30.39 in 10.0 mi ENE 8.1 mph - N/A   Mostly Cloudy
8:15 AM 17.6 °F 5.7 °F 14.0 °F 86% 30.40 in 10.0 mi ENE 10.4 mph - N/A   Overcast
8:35 AM 17.6 °F 6.4 °F 14.0 °F 86% 30.41 in 10.0 mi East 9.2 mph - N/A   Mostly Cloudy
8:55 AM 19.4 °F 8.6 °F 12.2 °F 74% 30.41 in 10.0 mi ENE 9.2 mph 17.3 mph N/A   Scattered Clouds
9:15 AM 19.4 °F 7.9 °F 10.4 °F 68% 30.42 in 10.0 mi East 10.4 mph 16.1 mph N/A   Clear
9:35 AM 21.2 °F 10.9 °F 10.4 °F 63% 30.42 in 10.0 mi East 9.2 mph - N/A   Clear
9:55 AM 21.2 °F 10.9 °F 10.4 °F 63% 30.42 in 10.0 mi East 9.2 mph - N/A   Clear
10:15 AM 23.0 °F 13.1 °F 8.6 °F 54% 30.43 in 10.0 mi ESE 9.2 mph - N/A   Clear
10:35 AM 23.0 °F 13.1 °F 6.8 °F 50% 30.43 in 10.0 mi East 9.2 mph 16.1 mph N/A   Clear
10:55 AM 24.8 °F 14.6 °F 5.0 °F 43% 30.42 in 10.0 mi East 10.4 mph - N/A   Clear
11:15 AM 24.8 °F 14.0 °F 5.0 °F 43% 30.41 in 10.0 mi ENE 11.5 mph - N/A   Clear
11:35 AM 26.6 °F 20.0 °F 5.0 °F 40% 30.40 in 10.0 mi East 5.8 mph - N/A   Clear
11:55 AM 26.6 °F 19.1 °F 3.2 °F 37% 30.40 in 10.0 mi East 6.9 mph - N/A   Clear
12:15 PM 28.4 °F 19.1 °F 3.2 °F 34% 30.38 in 10.0 mi East 10.4 mph - N/A   Clear
12:35 PM 28.4 °F 18.0 °F 3.2 °F 34% 30.38 in 10.0 mi East 12.7 mph - N/A   Clear
12:55 PM 28.4 °F 19.1 °F 3.2 °F 34% 30.37 in 10.0 mi East 10.4 mph - N/A   Clear
1:15 PM 28.4 °F 19.7 °F 3.2 °F 34% 30.36 in 10.0 mi East 9.2 mph - N/A   Clear
1:35 PM 28.4 °F 19.1 °F 1.4 °F 31% 30.35 in 10.0 mi East 10.4 mph 18.4 mph N/A   Clear
1:55 PM 28.4 °F 18.5 °F 1.4 °F 31% 30.35 in 10.0 mi ESE 11.5 mph 18.4 mph N/A   Clear
2:15 PM 28.4 °F 19.7 °F 1.4 °F 31% 30.34 in 10.0 mi East 9.2 mph - N/A   Clear
2:35 PM 28.4 °F 18.5 °F 1.4 °F 31% 30.34 in 10.0 mi East 11.5 mph - N/A   Clear
2:55 PM 28.4 °F 18.5 °F 1.4 °F 31% 30.34 in 10.0 mi East 11.5 mph - N/A   Clear
3:15 PM 28.4 °F 18.5 °F -0.4 °F 29% 30.33 in 10.0 mi East 11.5 mph 19.6 mph N/A   Clear
3:35 PM 28.4 °F 21.2 °F 3.2 °F 34% 30.33 in 10.0 mi East 6.9 mph - N/A   Clear
4:15 PM 28.4 °F 21.2 °F 1.4 °F 31% 30.33 in 10.0 mi East 6.9 mph - N/A   Clear
4:55 PM 24.8 °F 16.1 °F 3.2 °F 40% 30.34 in 10.0 mi NE 8.1 mph - N/A   Clear
5:15 PM 23.0 °F 13.1 °F 8.6 °F 54% 30.34 in 10.0 mi NE 9.2 mph - N/A   Clear
5:35 PM 21.2 °F 10.9 °F 8.6 °F 58% 30.34 in 10.0 mi ENE 9.2 mph - N/A   Clear
5:55 PM 21.2 °F 12.6 °F 8.6 °F 58% 30.35 in 10.0 mi East 6.9 mph - N/A   Clear
6:15 PM 21.2 °F 12.6 °F 8.6 °F 58% 30.35 in 10.0 mi East 6.9 mph - N/A   Clear
6:35 PM 21.2 °F 13.6 °F 8.6 °F 58% 30.35 in 10.0 mi East 5.8 mph - N/A   Clear
6:55 PM 21.2 °F 11.7 °F 8.6 °F 58% 30.35 in 10.0 mi East 8.1 mph - N/A   Clear
7:15 PM 21.2 °F 11.7 °F 8.6 °F 58% 30.35 in 10.0 mi East 8.1 mph - N/A   Clear
7:35 PM 21.2 °F 10.9 °F 8.6 °F 58% 30.35 in 10.0 mi East 9.2 mph - N/A   Clear
7:55 PM 21.2 °F 10.9 °F 8.6 °F 58% 30.34 in 10.0 mi East 9.2 mph - N/A   Clear
8:15 PM 21.2 °F 10.9 °F 8.6 °F 58% 30.34 in 10.0 mi East 9.2 mph - N/A   Clear
8:35 PM 21.2 °F 9.5 °F 10.4 °F 63% 30.33 in 10.0 mi East 11.5 mph - N/A   Clear
8:55 PM 21.2 °F 9.5 °F 8.6 °F 58% 30.33 in 10.0 mi East 11.5 mph - N/A   Clear
9:15 PM 19.4 °F 7.2 °F 8.6 °F 63% 30.32 in 10.0 mi East 11.5 mph - N/A   Clear
9:35 PM 19.4 °F 7.2 °F 10.4 °F 68% 30.32 in 10.0 mi East 11.5 mph - N/A   Clear
9:55 PM 19.4 °F 8.6 °F 10.4 °F 68% 30.31 in 10.0 mi East 9.2 mph - N/A   Clear
10:15 PM 19.4 °F 8.6 °F 10.4 °F 68% 30.30 in 10.0 mi East 9.2 mph - N/A   Clear
10:55 PM 19.4 °F 8.6 °F 8.6 °F 63% 30.29 in 10.0 mi East 9.2 mph - N/A   Clear
11:15 PM 19.4 °F 9.5 °F 8.6 °F 63% 30.28 in 10.0 mi East 8.1 mph - N/A   Clear
11:35 PM 19.4 °F 8.6 °F 8.6 °F 63% 30.28 in 10.0 mi East 9.2 mph 16.1 mph N/A   Clear